| time (UTC) | temp C | wind direction | speed KPH | gust KPH | rain 1hr cm | rain 24hr cm | rain mn cm | humidity % | barometer mb |
| 20260904151537 | 31 | 311 | 3.2 | 16.1 | 0.00 | 0.00 | 0.00 | 36 | 1013.0 |
| 20260904150031 | 31 | 260 | 3.2 | 14.5 | 0.00 | 0.00 | 0.00 | 36 | 1013.1 |
| 20260904144526 | 31 | 277 | 3.2 | 9.7 | 0.00 | 0.00 | 0.00 | 36 | 1013.3 |
| 20260904143025 | 31 | 245 | 3.2 | 11.3 | 0.00 | 0.00 | 0.00 | 36 | 1013.4 |
| 20260904141524 | 31 | 230 | 1.6 | 12.9 | 0.00 | 0.00 | 0.00 | 36 | 1013.7 |
| 20260904140021 | 31 | 306 | 0.0 | 11.3 | 0.00 | 0.00 | 0.00 | 36 | 1013.7 |
| 20260904134523 | 31 | 326 | 3.2 | 14.5 | 0.00 | 0.00 | 0.00 | 35 | 1013.8 |
| 20260904133018 | 31 | 13 | 1.6 | 8.0 | 0.00 | 0.00 | 0.00 | 35 | 1013.9 |
| 20260904131514 | 30 | 269 | 3.2 | 14.5 | 0.00 | 0.00 | 0.00 | 37 | 1014.2 |
| 20260904130012 | 30 | 293 | 4.8 | 12.9 | 0.00 | 0.00 | 0.00 | 39 | 1014.6 |
| 20260904124511 | 30 | 311 | 1.6 | 11.3 | 0.00 | 0.00 | 0.00 | 39 | 1014.8 |
| 20260904123008 | 30 | 298 | 1.6 | 8.0 | 0.00 | 0.00 | 0.00 | 40 | 1015.1 |
| 20260904121507 | 30 | 316 | 1.6 | 9.7 | 0.00 | 0.00 | 0.00 | 41 | 1015.1 |
| 20260904120004 | 30 | 269 | 1.6 | 9.7 | 0.00 | 0.00 | 0.00 | 42 | 1015.4 |
| 20260904114501 | 29 | 307 | 0.0 | 11.3 | 0.00 | 0.00 | 0.00 | 45 | 1015.4 |
| 20260904113059 | 28 | 295 | 1.6 | 12.9 | 0.00 | 0.00 | 0.00 | 45 | 1015.7 |
| 20260904111555 | 28 | 232 | 0.0 | 11.3 | 0.00 | 0.00 | 0.00 | 47 | 1016.0 |
| 20260904110052 | 28 | 55 | 1.6 | 11.3 | 0.00 | 0.00 | 0.00 | 47 | 1016.3 |
| 20260904104552 | 27 | 205 | 1.6 | 11.3 | 0.00 | 0.00 | 0.00 | 48 | 1016.6 |
| 20260904103048 | 27 | 290 | 0.0 | 9.7 | 0.00 | 0.00 | 0.00 | 49 | 1016.8 |
| 20260904101544 | 27 | 260 | 0.0 | 9.7 | 0.00 | 0.00 | 0.00 | 51 | 1017.0 |
| 20260904100040 | 26 | 315 | 3.2 | 11.3 | 0.00 | 0.00 | 0.00 | 51 | 1017.2 |
| 20260904094536 | 26 | 225 | 0.0 | 4.8 | 0.00 | 0.00 | 0.00 | 56 | 1017.5 |
| 20260904093033 | 25 | 259 | 0.0 | 6.4 | 0.00 | 0.00 | 0.00 | 57 | 1017.8 |
| 20260904091529 | 25 | 259 | 1.6 | 9.7 | 0.00 | 0.00 | 0.00 | 59 | 1018.1 |
| 20260904090026 | 24 | 315 | 0.0 | 3.2 | 0.00 | 0.00 | 0.00 | 60 | 1018.3 |
| 20260904084523 | 23 | 301 | 0.0 | 4.8 | 0.00 | 0.00 | 0.00 | 62 | 1018.5 |
| 20260904083018 | 22 | 270 | 0.0 | 4.8 | 0.00 | 0.00 | 0.00 | 64 | 1018.5 |
| 20260904081512 | 21 | 291 | 0.0 | 1.6 | 0.00 | 0.00 | 0.00 | 67 | 1018.8 |
| 20260904080008 | 20 | 291 | 0.0 | 0.0 | 0.00 | 0.00 | 0.00 | 71 | 1018.9 |
| 20260904074504 | 19 | 291 | 0.0 | 0.0 | 0.00 | 0.00 | 0.00 | 71 | 1019.0 |
| 20260904073002 | 18 | 291 | 0.0 | 0.0 | 0.00 | 0.00 | 0.00 | 73 | 1019.1 |
| 20260904071602 | 18 | 291 | 0.0 | 0.0 | 0.00 | 0.00 | 0.00 | 75 | 1019.2 |
| 20260904070100 | 17 | 291 | 0.0 | 0.0 | 0.00 | 0.00 | 0.00 | 78 | 1019.3 |
| 20260904064554 | 16 | 291 | 0.0 | 0.0 | 0.00 | 0.00 | 0.00 | 80 | 1019.5 |
| 20260904063112 | 16 | 291 | 0.0 | 0.0 | 0.00 | 0.00 | 0.00 | 81 | 1019.5 |
| 20260904061553 | 16 | 291 | 0.0 | 0.0 | 0.00 | 0.00 | 0.00 | 82 | 1019.5 |
| 20260904060054 | 15 | 291 | 0.0 | 0.0 | 0.00 | 0.00 | 0.00 | 83 | 1019.6 |
| 20260904054554 | 15 | 309 | 0.0 | 0.0 | 0.00 | 0.00 | 0.00 | 84 | 1019.6 |
| 20260904053100 | 15 | 309 | 0.0 | 0.0 | 0.00 | 0.00 | 0.00 | 85 | 1019.5 |
| 20260904051552 | 15 | 309 | 0.0 | 0.0 | 0.00 | 0.00 | 0.00 | 84 | 1019.5 |
| 20260904050052 | 15 | 309 | 0.0 | 0.0 | 0.00 | 0.00 | 0.00 | 82 | 1019.5 |
| 20260904044549 | 15 | 309 | 0.0 | 0.0 | 0.00 | 0.00 | 0.00 | 82 | 1019.5 |
| 20260904043056 | 15 | 309 | 0.0 | 0.0 | 0.00 | 0.00 | 0.00 | 81 | 1019.6 |
| 20260904041548 | 16 | 309 | 0.0 | 0.0 | 0.00 | 0.00 | 0.00 | 80 | 1019.7 |
| 20260904040046 | 16 | 309 | 0.0 | 0.0 | 0.00 | 0.00 | 0.00 | 80 | 1019.9 |
| 20260904034545 | 16 | 309 | 0.0 | 0.0 | 0.00 | 0.00 | 0.00 | 81 | 1020.1 |
| 20260904033043 | 15 | 309 | 0.0 | 1.6 | 0.00 | 0.00 | 0.00 | 82 | 1020.1 |
| 20260904031543 | 15 | 309 | 0.0 | 0.0 | 0.00 | 0.00 | 0.00 | 83 | 1020.4 |
| 20260904030053 | 15 | 309 | 0.0 | 0.0 | 0.00 | 0.00 | 0.00 | 83 | 1020.6 |
| 20260904024539 | 15 | 309 | 0.0 | 0.0 | 0.00 | 0.00 | 0.00 | 85 | 1020.7 |
| 20260904023039 | 14 | 309 | 0.0 | 0.0 | 0.00 | 0.00 | 0.00 | 84 | 1020.9 |
| 20260904021550 | 14 | 309 | 0.0 | 0.0 | 0.00 | 0.00 | 0.00 | 84 | 1020.7 |
| 20260904020036 | 15 | 309 | 0.0 | 0.0 | 0.00 | 0.00 | 0.00 | 83 | 1020.7 |
| 20260904014537 | 15 | 309 | 0.0 | 0.0 | 0.00 | 0.00 | 0.00 | 82 | 1020.7 |
| 20260904013034 | 15 | 309 | 0.0 | 0.0 | 0.00 | 0.00 | 0.00 | 82 | 1020.7 |
| 20260904011531 | 15 | 309 | 0.0 | 0.0 | 0.00 | 0.00 | 0.00 | 80 | 1020.7 |
| 20260904010029 | 16 | 309 | 0.0 | 0.0 | 0.00 | 0.00 | 0.00 | 79 | 1020.8 |
| 20260904004529 | 16 | 309 | 0.0 | 0.0 | 0.00 | 0.00 | 0.00 | 78 | 1020.9 |
| 20260904003025 | 16 | 309 | 0.0 | 0.0 | 0.00 | 0.00 | 0.00 | 79 | 1021.0 |
| 20260904001523 | 16 | 309 | 0.0 | 0.0 | 0.00 | 0.00 | 0.00 | 78 | 1021.2 |
| 20260904000021 | 16 | 309 | 0.0 | 0.0 | 0.00 | 0.00 | 0.00 | 77 | 1021.2 |
| 20260903234520 | 16 | 309 | 0.0 | 0.0 | 0.00 | 0.00 | 0.00 | 77 | 1021.2 |
| 20260903233032 | 16 | 309 | 0.0 | 0.0 | 0.00 | 0.00 | 0.00 | 77 | 1021.2 |
| 20260903231531 | 16 | 309 | 0.0 | 0.0 | 0.00 | 0.00 | 0.00 | 77 | 1021.4 |
| 20260903230017 | 16 | 309 | 0.0 | 0.0 | 0.00 | 0.00 | 0.00 | 76 | 1021.3 |
| 20260903224517 | 16 | 309 | 0.0 | 0.0 | 0.00 | 0.00 | 0.00 | 76 | 1021.3 |
| 20260903223015 | 16 | 309 | 0.0 | 0.0 | 0.00 | 0.00 | 0.00 | 77 | 1021.2 |
| 20260903221514 | 17 | 309 | 0.0 | 0.0 | 0.00 | 0.00 | 0.00 | 76 | 1021.3 |
| 20260903220010 | 17 | 309 | 0.0 | 0.0 | 0.00 | 0.00 | 0.00 | 74 | 1021.3 |
| 20260903214510 | 17 | 309 | 0.0 | 0.0 | 0.00 | 0.00 | 0.00 | 74 | 1021.3 |
| 20260903213009 | 17 | 309 | 0.0 | 0.0 | 0.00 | 0.00 | 0.00 | 74 | 1021.2 |
| 20260903211509 | 18 | 309 | 0.0 | 0.0 | 0.00 | 0.00 | 0.00 | 73 | 1021.5 |
| 20260903210009 | 18 | 309 | 0.0 | 0.0 | 0.00 | 0.00 | 0.00 | 72 | 1021.2 |
| 20260903204508 | 18 | 309 | 0.0 | 0.0 | 0.00 | 0.00 | 0.00 | 71 | 1021.2 |
| 20260903203008 | 18 | 309 | 0.0 | 0.0 | 0.00 | 0.00 | 0.00 | 69 | 1021.2 |
| 20260903201509 | 19 | 309 | 0.0 | 0.0 | 0.00 | 0.00 | 0.00 | 69 | 1021.0 |
| 20260903200007 | 19 | 309 | 0.0 | 0.0 | 0.00 | 0.00 | 0.00 | 68 | 1021.3 |
| 20260903194506 | 19 | 309 | 0.0 | 0.0 | 0.00 | 0.00 | 0.00 | 67 | 1021.4 |
| 20260903193011 | 19 | 309 | 0.0 | 0.0 | 0.00 | 0.00 | 0.00 | 66 | 1021.4 |
| 20260903191517 | 19 | 309 | 0.0 | 0.0 | 0.00 | 0.00 | 0.00 | 66 | 1021.1 |
| 20260903190005 | 20 | 309 | 0.0 | 0.0 | 0.00 | 0.00 | 0.00 | 64 | 1021.1 |
| 20260903184505 | 20 | 309 | 0.0 | 0.0 | 0.00 | 0.00 | 0.00 | 62 | 1020.8 |
| 20260903183004 | 20 | 309 | 0.0 | 0.0 | 0.00 | 0.00 | 0.00 | 60 | 1020.6 |
| 20260903181504 | 21 | 309 | 0.0 | 0.0 | 0.00 | 0.00 | 0.00 | 58 | 1020.5 |
| 20260903180003 | 22 | 309 | 0.0 | 0.0 | 0.00 | 0.00 | 0.00 | 56 | 1020.3 |
| 20260903174503 | 22 | 309 | 0.0 | 0.0 | 0.00 | 0.00 | 0.00 | 52 | 1020.5 |
| 20260903173003 | 23 | 309 | 0.0 | 0.0 | 0.00 | 0.00 | 0.00 | 50 | 1020.4 |
| 20260903171502 | 23 | 309 | 0.0 | 4.8 | 0.00 | 0.00 | 0.00 | 50 | 1020.2 |
| 20260903170001 | 24 | 294 | 0.0 | 3.2 | 0.00 | 0.00 | 0.00 | 47 | 1020.3 |
| 20260903164502 | 24 | 318 | 0.0 | 6.4 | 0.00 | 0.00 | 0.00 | 47 | 1020.2 |
| 20260903163002 | 25 | 302 | 1.6 | 6.4 | 0.00 | 0.00 | 0.00 | 45 | 1020.2 |
| 20260903161601 | 25 | 293 | 0.0 | 9.7 | 0.00 | 0.00 | 0.00 | 45 | 1020.1 |
| 20260903160100 | 25 | 260 | 0.0 | 8.0 | 0.00 | 0.00 | 0.00 | 45 | 1020.1 |
| 20260903154559 | 25 | 315 | 0.0 | 3.2 | 0.00 | 0.00 | 0.00 | 44 | 1020.2 |
| 20260903153107 | 26 | 298 | 0.0 | 6.4 | 0.00 | 0.00 | 0.00 | 44 | 1020.3 |